CFG1YE EDDM-LEIB

Flight info

Callsign CFG1YE
Flight time 2h 6m
Altitude 35000
Route TURBU7S TURBU Y107 TOBSO DCT BAKOR DCT MISPO DCT PIDAD DCT TALEP DCT RARQU DCT BALEN DCT SORAS N850 POS
Aircraft A320/M-SDE2FGHIJ1RWXY/LB1

Departure

Time 2026-05-05 10:20
Airport Munich Airport (EDDM)

Arrival

Time 2026-05-05 12:27
Airport Ibiza Airport (LEIB)
Time Latitude Longitude Altitude Speed Heading
2026-05-05 09:50 48.34948 11.78374 1482 ft 0 kts 83°
2026-05-05 10:10 48.34948 11.78371 1485 ft 2 kts 83°
2026-05-05 10:10 48.34945 11.78333 1482 ft 4 kts 83°
2026-05-05 10:10 48.34943 11.78301 1476 ft 4 kts 77°
2026-05-05 10:11 48.34932 11.78273 1479 ft 4 kts 12°
2026-05-05 10:11 48.34909 11.78274 1482 ft 3 kts 353°
2026-05-05 10:11 48.34906 11.78274 1482 ft 0 kts 353°
2026-05-05 10:13 48.34919 11.78272 1473 ft 5 kts 353°
2026-05-05 10:13 48.34971 11.78263 1485 ft 10 kts 353°
2026-05-05 10:14 48.35060 11.78247 1485 ft 14 kts 353°
2026-05-05 10:14 48.35155 11.78230 1481 ft 13 kts 353°
2026-05-05 10:14 48.35202 11.78146 1482 ft 12 kts 268°
2026-05-05 10:14 48.35192 11.78008 1485 ft 14 kts 263°
2026-05-05 10:15 48.35164 11.77866 1476 ft 14 kts 214°
2026-05-05 10:15 48.35056 11.77869 1472 ft 18 kts 174°
2026-05-05 10:15 48.34929 11.77891 1480 ft 19 kts 173°
2026-05-05 10:15 48.34797 11.77878 1482 ft 19 kts 175°
2026-05-05 10:16 48.34686 11.77915 1479 ft 14 kts 136°
2026-05-05 10:16 48.34677 11.78076 1485 ft 18 kts 83°
2026-05-05 10:16 48.34693 11.78293 1485 ft 23 kts 83°
2026-05-05 10:16 48.34713 11.78544 1481 ft 25 kts 83°
2026-05-05 10:17 48.34733 11.78805 1485 ft 26 kts 84°
2026-05-05 10:17 48.34754 11.79075 1483 ft 26 kts 83°
2026-05-05 10:17 48.34775 11.79353 1478 ft 27 kts 83°
2026-05-05 10:17 48.34797 11.79638 1473 ft 28 kts 83°
2026-05-05 10:18 48.34820 11.79930 1485 ft 27 kts 83°
2026-05-05 10:18 48.34822 11.80157 1476 ft 18 kts 117°
2026-05-05 10:18 48.34758 11.80231 1485 ft 18 kts 165°
2026-05-05 10:18 48.34630 11.80260 1473 ft 19 kts 174°
2026-05-05 10:19 48.34469 11.80261 1475 ft 12 kts 220°
2026-05-05 10:19 48.34455 11.80112 1485 ft 24 kts 263°
2026-05-05 10:19 48.34406 11.79495 1474 ft 93 kts 263°
2026-05-05 10:19 48.34345 11.78709 1486 ft 131 kts 263°
2026-05-05 10:20 48.34176 11.76497 1645 ft 177 kts 263°
2026-05-05 10:20 48.34082 11.75263 2155 ft 175 kts 263°
2026-05-05 10:20 48.33941 11.73441 2848 ft 179 kts 261°
2026-05-05 10:20 48.33376 11.71692 3184 ft 200 kts 222°
2026-05-05 10:21 48.32059 11.70848 3469 ft 219 kts 184°
2026-05-05 10:21 48.30516 11.70806 4060 ft 223 kts 181°
2026-05-05 10:21 48.28976 11.71005 4842 ft 224 kts 165°
2026-05-05 10:21 48.27547 11.71953 5347 ft 238 kts 147°
2026-05-05 10:22 48.26107 11.73425 5699 ft 262 kts 146°
2026-05-05 10:22 48.24576 11.74998 6361 ft 271 kts 146°
2026-05-05 10:22 48.23007 11.76602 7121 ft 275 kts 146°
2026-05-05 10:22 48.21418 11.78223 7906 ft 278 kts 146°
2026-05-05 10:23 48.19804 11.79862 8694 ft 282 kts 146°
2026-05-05 10:23 48.18145 11.81451 9479 ft 285 kts 153°
2026-05-05 10:23 48.16289 11.82537 10182 ft 290 kts 162°
2026-05-05 10:23 48.14297 11.83516 10417 ft 313 kts 162°
2026-05-05 10:24 48.12154 11.84573 10619 ft 334 kts 162°
2026-05-05 10:24 48.09913 11.85687 11164 ft 342 kts 162°
2026-05-05 10:24 48.07646 11.86816 11846 ft 346 kts 162°
2026-05-05 10:24 48.05353 11.87958 12567 ft 348 kts 162°
2026-05-05 10:25 48.03044 11.89107 13272 ft 351 kts 163°
2026-05-05 10:25 48.00716 11.90265 13924 ft 354 kts 163°
2026-05-05 10:25 47.98369 11.91429 14526 ft 357 kts 163°
2026-05-05 10:25 47.96002 11.92599 15131 ft 360 kts 163°
2026-05-05 10:26 47.93616 11.93776 15721 ft 362 kts 163°
2026-05-05 10:26 47.91163 11.94650 16308 ft 364 kts 174°
2026-05-05 10:26 47.88631 11.94829 16891 ft 366 kts 182°
2026-05-05 10:26 47.86078 11.94775 17491 ft 368 kts 182°
2026-05-05 10:27 47.83504 11.94724 18075 ft 371 kts 181°
2026-05-05 10:27 47.80912 11.94675 18578 ft 374 kts 181°
2026-05-05 10:27 47.78299 11.94627 19080 ft 377 kts 182°
2026-05-05 10:27 47.75663 11.94576 19565 ft 380 kts 182°
2026-05-05 10:28 47.73009 11.94526 20067 ft 383 kts 181°
2026-05-05 10:28 47.70331 11.94481 20558 ft 387 kts 181°
2026-05-05 10:28 47.67625 11.94436 21013 ft 390 kts 181°
2026-05-05 10:28 47.64898 11.94387 21441 ft 394 kts 182°
2026-05-05 10:29 47.62152 11.94337 21921 ft 396 kts 181°
2026-05-05 10:29 47.59384 11.94284 22358 ft 400 kts 181°
2026-05-05 10:29 47.56587 11.94234 22798 ft 404 kts 181°
2026-05-05 10:29 47.53769 11.94185 23229 ft 407 kts 181°
2026-05-05 10:30 47.50924 11.94135 23606 ft 410 kts 181°
2026-05-05 10:30 47.48063 11.94088 23987 ft 412 kts 181°
2026-05-05 10:30 47.45187 11.94039 24376 ft 414 kts 182°
2026-05-05 10:30 47.42313 11.93851 24744 ft 414 kts 188°
2026-05-05 10:31 47.39452 11.93278 25115 ft 415 kts 189°
2026-05-05 10:31 47.36587 11.92699 25505 ft 415 kts 189°
2026-05-05 10:31 47.33723 11.92124 25903 ft 416 kts 189°
2026-05-05 10:31 47.30853 11.91552 26258 ft 417 kts 189°
2026-05-05 10:32 47.28011 11.90989 26611 ft 418 kts 189°
2026-05-05 10:32 47.25122 11.90418 26985 ft 420 kts 189°
2026-05-05 10:32 47.22225 11.89841 27332 ft 421 kts 189°
2026-05-05 10:32 47.19321 11.89261 27644 ft 422 kts 189°
2026-05-05 10:33 47.16409 11.88680 28019 ft 422 kts 189°
2026-05-05 10:33 47.13496 11.88101 28391 ft 422 kts 189°
2026-05-05 10:33 47.10583 11.87528 28715 ft 423 kts 189°
2026-05-05 10:33 47.07661 11.86954 28989 ft 425 kts 189°
2026-05-05 10:34 47.04727 11.86376 29275 ft 426 kts 189°
2026-05-05 10:34 47.01782 11.85790 29516 ft 428 kts 190°
2026-05-05 10:34 46.98839 11.85074 29780 ft 429 kts 192°
2026-05-05 10:34 46.95915 11.84195 30005 ft 430 kts 193°
2026-05-05 10:35 46.92983 11.83213 30136 ft 434 kts 194°
2026-05-05 10:35 46.90040 11.82187 30303 ft 436 kts 194°
2026-05-05 10:35 46.87088 11.81166 30542 ft 436 kts 194°
2026-05-05 10:35 46.84136 11.80174 30819 ft 435 kts 194°
2026-05-05 10:36 46.81184 11.79213 31112 ft 434 kts 193°
2026-05-05 10:36 46.78235 11.78279 31375 ft 433 kts 193°
2026-05-05 10:36 46.75294 11.77365 31644 ft 432 kts 193°
2026-05-05 10:36 46.72359 11.76458 31943 ft 430 kts 193°
2026-05-05 10:37 46.69435 11.75548 32235 ft 429 kts 193°
2026-05-05 10:37 46.66521 11.74635 32521 ft 428 kts 193°
2026-05-05 10:37 46.63622 11.73677 32820 ft 426 kts 197°
2026-05-05 10:37 46.60851 11.72198 33107 ft 423 kts 206°
2026-05-05 10:38 46.58302 11.70085 33375 ft 422 kts 215°
2026-05-05 10:38 46.55948 11.67552 33701 ft 419 kts 217°
2026-05-05 10:38 46.53619 11.65029 34049 ft 416 kts 217°
2026-05-05 10:38 46.51302 11.62530 34312 ft 415 kts 217°
2026-05-05 10:39 46.48987 11.60042 34527 ft 414 kts 217°
2026-05-05 10:39 46.46669 11.57560 34745 ft 414 kts 217°
2026-05-05 10:39 46.44352 11.55084 34932 ft 414 kts 217°
2026-05-05 10:39 46.42033 11.52614 34993 ft 414 kts 217°
2026-05-05 10:40 46.37405 11.47681 34998 ft 412 kts 217°
2026-05-05 10:40 46.32763 11.42734 35000 ft 416 kts 217°
2026-05-05 10:41 46.28091 11.37768 35003 ft 417 kts 217°
2026-05-05 10:41 46.23443 11.32843 35007 ft 417 kts 217°
2026-05-05 10:42 46.16412 11.25422 35019 ft 418 kts 217°
2026-05-05 10:43 46.11725 11.20477 35060 ft 417 kts 217°
2026-05-05 10:43 46.07037 11.15535 35073 ft 418 kts 216°
2026-05-05 10:44 46.02345 11.10596 35058 ft 418 kts 216°
2026-05-05 10:44 45.97662 11.05690 35043 ft 416 kts 216°
2026-05-05 10:45 45.92980 11.00801 35043 ft 416 kts 216°
2026-05-05 10:45 45.88303 10.95917 35043 ft 416 kts 216°
2026-05-05 10:46 45.83624 10.91040 35027 ft 415 kts 216°
2026-05-05 10:46 45.78942 10.86178 35029 ft 416 kts 216°
2026-05-05 10:47 45.74260 10.81329 35030 ft 415 kts 216°
2026-05-05 10:47 45.69581 10.76489 35030 ft 415 kts 216°
2026-05-05 10:48 45.64904 10.71645 35023 ft 415 kts 216°
2026-05-05 10:48 45.60221 10.66813 35014 ft 415 kts 216°
2026-05-05 10:49 45.55530 10.62000 35014 ft 415 kts 216°
2026-05-05 10:49 45.50838 10.57191 35020 ft 415 kts 216°
2026-05-05 10:50 45.46140 10.52393 35036 ft 415 kts 217°
2026-05-05 10:50 45.41447 10.47590 35041 ft 415 kts 217°
2026-05-05 10:51 45.36751 10.42791 35041 ft 415 kts 217°
2026-05-05 10:51 45.32054 10.38016 35035 ft 415 kts 217°
2026-05-05 10:52 45.27355 10.33253 35013 ft 415 kts 217°
2026-05-05 10:52 45.22658 10.28493 34993 ft 415 kts 217°
2026-05-05 10:53 45.17961 10.23745 34991 ft 415 kts 217°
2026-05-05 10:53 45.13264 10.19002 34989 ft 415 kts 217°
2026-05-05 10:54 45.08568 10.14258 34980 ft 415 kts 217°
2026-05-05 10:54 45.03892 10.09565 34984 ft 415 kts 217°
2026-05-05 10:55 44.99189 10.04848 34993 ft 414 kts 217°
2026-05-05 10:55 44.94500 10.00112 34986 ft 414 kts 218°
2026-05-05 10:56 44.89809 9.95379 34992 ft 414 kts 218°
2026-05-05 10:56 44.85119 9.90662 35008 ft 414 kts 218°
2026-05-05 10:57 44.80427 9.85968 35012 ft 413 kts 218°
2026-05-05 10:57 44.75644 9.81463 34998 ft 414 kts 216°
2026-05-05 10:58 44.70728 9.77243 34998 ft 414 kts 214°
2026-05-05 10:58 44.65805 9.73052 34993 ft 413 kts 215°
2026-05-05 10:59 44.60913 9.68816 34979 ft 413 kts 215°
2026-05-05 10:59 44.56040 9.64567 34969 ft 412 kts 215°
2026-05-05 11:00 44.51187 9.60333 34977 ft 410 kts 214°
2026-05-05 11:00 44.46337 9.56130 34982 ft 409 kts 214°
2026-05-05 11:01 44.41492 9.51950 34983 ft 409 kts 214°
2026-05-05 11:01 44.36655 9.47779 34974 ft 408 kts 214°
2026-05-05 11:02 44.31819 9.43614 34992 ft 408 kts 214°
2026-05-05 11:02 44.26991 9.39461 34988 ft 407 kts 214°
2026-05-05 11:03 44.22168 9.35315 34976 ft 407 kts 214°
2026-05-05 11:03 44.17343 9.31190 34978 ft 407 kts 214°
2026-05-05 11:04 44.12518 9.27079 34981 ft 406 kts 214°
2026-05-05 11:04 44.07698 9.22975 34982 ft 406 kts 214°
2026-05-05 11:05 44.02882 9.18871 34970 ft 406 kts 214°
2026-05-05 11:05 43.98067 9.14774 34980 ft 406 kts 214°
2026-05-05 11:06 43.94062 9.11385 34980 ft 406 kts 214°
2026-05-05 11:06 43.88467 9.06647 35009 ft 405 kts 214°
2026-05-05 11:07 43.83661 9.02584 34979 ft 405 kts 214°
2026-05-05 11:07 43.79630 8.99186 34977 ft 405 kts 214°
2026-05-05 11:08 43.74817 8.95134 34972 ft 405 kts 214°
2026-05-05 11:08 43.70000 8.91086 34978 ft 405 kts 214°
2026-05-05 11:09 43.65180 8.87046 34967 ft 405 kts 214°
2026-05-05 11:09 43.60391 8.83029 34971 ft 406 kts 214°
2026-05-05 11:10 43.55560 8.78998 34971 ft 406 kts 213°
2026-05-05 11:10 43.50723 8.74974 34973 ft 406 kts 213°
2026-05-05 11:11 43.45952 8.70825 34985 ft 404 kts 220°
2026-05-05 11:11 43.41769 8.65687 34986 ft 403 kts 223°
2026-05-05 11:12 43.37602 8.60525 34986 ft 403 kts 223°
2026-05-05 11:12 43.33422 8.55382 34987 ft 403 kts 223°
2026-05-05 11:13 43.29238 8.50246 34976 ft 403 kts 224°
2026-05-05 11:13 43.25067 8.45111 34984 ft 403 kts 224°
2026-05-05 11:14 43.20901 8.39983 34986 ft 402 kts 224°
2026-05-05 11:14 43.16724 8.34873 34989 ft 402 kts 224°
2026-05-05 11:15 43.12553 8.29772 34993 ft 402 kts 224°
2026-05-05 11:15 43.08391 8.24688 35000 ft 401 kts 224°
2026-05-05 11:16 43.04238 8.19620 34999 ft 400 kts 224°
2026-05-05 11:16 43.00085 8.14575 35000 ft 399 kts 224°
2026-05-05 11:17 42.95940 8.09533 34999 ft 399 kts 224°
2026-05-05 11:17 42.91796 8.04506 34992 ft 398 kts 224°
2026-05-05 11:18 42.87655 7.99496 34998 ft 398 kts 224°
2026-05-05 11:18 42.83519 7.94506 35016 ft 397 kts 224°
2026-05-05 11:19 42.79382 7.89532 35011 ft 396 kts 224°
2026-05-05 11:19 42.75256 7.84564 34999 ft 396 kts 224°
2026-05-05 11:20 42.71133 7.79616 34990 ft 395 kts 224°
2026-05-05 11:20 42.67015 7.74685 34994 ft 394 kts 224°
2026-05-05 11:21 42.62902 7.69769 34994 ft 394 kts 224°
2026-05-05 11:21 42.58788 7.64868 35000 ft 393 kts 224°
2026-05-05 11:22 42.54680 7.59969 34997 ft 393 kts 224°
2026-05-05 11:22 42.50573 7.55078 35013 ft 393 kts 224°
2026-05-05 11:23 42.46463 7.50201 35008 ft 393 kts 224°
2026-05-05 11:23 42.42356 7.45333 35006 ft 392 kts 224°
2026-05-05 11:24 42.38247 7.40472 35001 ft 392 kts 224°
2026-05-05 11:24 42.34142 7.35626 34987 ft 391 kts 224°
2026-05-05 11:25 42.30044 7.30795 34990 ft 391 kts 224°
2026-05-05 11:25 42.25952 7.25978 35002 ft 390 kts 224°
2026-05-05 11:26 42.21861 7.21173 35002 ft 390 kts 224°
2026-05-05 11:26 42.17799 7.16408 34989 ft 389 kts 224°
2026-05-05 11:27 42.13708 7.11627 34997 ft 389 kts 224°
2026-05-05 11:27 42.09625 7.06857 35001 ft 389 kts 224°
2026-05-05 11:28 42.05539 7.02096 35001 ft 388 kts 224°
2026-05-05 11:28 42.01462 6.97335 35002 ft 388 kts 225°
2026-05-05 11:29 41.97462 6.92480 34973 ft 387 kts 226°
2026-05-05 11:29 41.93504 6.87572 34986 ft 387 kts 226°
2026-05-05 11:30 41.89545 6.82677 35010 ft 387 kts 226°
2026-05-05 11:30 41.85572 6.77815 35011 ft 386 kts 226°
2026-05-05 11:31 41.81604 6.72970 35012 ft 386 kts 226°
2026-05-05 11:31 41.77630 6.68145 34982 ft 385 kts 226°
2026-05-05 11:32 41.73664 6.63320 34987 ft 385 kts 226°
2026-05-05 11:32 41.69691 6.58500 34990 ft 385 kts 226°
2026-05-05 11:33 41.65721 6.53687 34990 ft 385 kts 226°
2026-05-05 11:33 41.61749 6.48881 34991 ft 385 kts 226°
2026-05-05 11:34 41.57774 6.44086 34998 ft 385 kts 225°
2026-05-05 11:34 41.53806 6.39299 35002 ft 384 kts 225°
2026-05-05 11:35 41.49839 6.34529 34996 ft 384 kts 225°
2026-05-05 11:35 41.45868 6.29776 34996 ft 383 kts 225°
2026-05-05 11:36 41.41906 6.25022 34999 ft 383 kts 225°
2026-05-05 11:36 41.37970 6.20308 34966 ft 383 kts 225°
2026-05-05 11:37 41.34005 6.15566 34972 ft 384 kts 225°
2026-05-05 11:37 41.30031 6.10826 34975 ft 384 kts 225°
2026-05-05 11:38 41.26052 6.06095 34995 ft 383 kts 225°
2026-05-05 11:38 41.22082 6.01369 35000 ft 383 kts 225°
2026-05-05 11:39 41.18108 5.96660 34963 ft 383 kts 225°
2026-05-05 11:39 41.14135 5.91953 34965 ft 383 kts 225°
2026-05-05 11:40 41.10153 5.87249 34968 ft 383 kts 225°
2026-05-05 11:40 41.06168 5.82546 34971 ft 384 kts 225°
2026-05-05 11:41 41.02185 5.77842 34972 ft 384 kts 225°
2026-05-05 11:41 40.98193 5.73145 34951 ft 384 kts 225°
2026-05-05 11:42 40.94493 5.68109 34978 ft 380 kts 237°
2026-05-05 11:42 40.92001 5.61960 34972 ft 380 kts 243°
2026-05-05 11:43 40.89630 5.55722 34970 ft 380 kts 243°
2026-05-05 11:43 40.87256 5.49490 34971 ft 380 kts 243°
2026-05-05 11:44 40.84892 5.43299 34976 ft 380 kts 243°
2026-05-05 11:44 40.82508 5.37072 34981 ft 380 kts 243°
2026-05-05 11:45 40.80119 5.30849 34997 ft 380 kts 243°
2026-05-05 11:45 40.77734 5.24628 34972 ft 380 kts 243°
2026-05-05 11:46 40.75345 5.18412 34969 ft 380 kts 243°
2026-05-05 11:46 40.72950 5.12199 34969 ft 380 kts 243°
2026-05-05 11:47 40.70543 5.05989 34968 ft 380 kts 243°
2026-05-05 11:47 40.68136 4.99788 34971 ft 380 kts 243°
2026-05-05 11:48 40.64527 4.90485 34988 ft 380 kts 242°
2026-05-05 11:48 40.62116 4.84296 34982 ft 380 kts 242°
2026-05-05 11:49 40.59705 4.78112 34988 ft 380 kts 242°
2026-05-05 11:49 40.57290 4.71932 34977 ft 380 kts 242°
2026-05-05 11:50 40.54869 4.65752 34972 ft 380 kts 242°
2026-05-05 11:50 40.52446 4.59593 34971 ft 379 kts 242°
2026-05-05 11:51 40.50024 4.53430 34988 ft 379 kts 242°
2026-05-05 11:51 40.47598 4.47283 34986 ft 379 kts 242°
2026-05-05 11:52 40.45173 4.41145 34978 ft 379 kts 242°
2026-05-05 11:52 40.42752 4.35006 34974 ft 378 kts 242°
2026-05-05 11:53 40.40737 4.29912 34968 ft 378 kts 242°
2026-05-05 11:53 40.38300 4.23797 34929 ft 379 kts 242°
2026-05-05 11:54 40.35855 4.17664 34955 ft 380 kts 242°
2026-05-05 11:54 40.33417 4.11531 34954 ft 379 kts 242°
2026-05-05 11:55 40.30967 4.05407 34960 ft 379 kts 241°
2026-05-05 11:55 40.28511 3.99288 34959 ft 379 kts 242°
2026-05-05 11:56 40.26053 3.93178 34955 ft 379 kts 241°
2026-05-05 11:56 40.23594 3.87069 34957 ft 379 kts 241°
2026-05-05 11:57 40.21134 3.80960 34967 ft 380 kts 241°
2026-05-05 11:57 40.18669 3.74863 34933 ft 379 kts 241°
2026-05-05 11:58 40.16201 3.68773 34936 ft 379 kts 241°
2026-05-05 11:58 40.13726 3.62681 34942 ft 380 kts 241°
2026-05-05 11:59 40.11247 3.56589 34941 ft 380 kts 241°
2026-05-05 11:59 40.08763 3.50499 34940 ft 380 kts 241°
2026-05-05 12:00 40.06293 3.44445 34943 ft 380 kts 241°
2026-05-05 12:00 40.03809 3.38355 34946 ft 380 kts 241°
2026-05-05 12:01 40.01320 3.32271 34948 ft 380 kts 241°
2026-05-05 12:01 39.98820 3.26192 34948 ft 380 kts 241°
2026-05-05 12:02 39.96310 3.20117 34928 ft 381 kts 240°
2026-05-05 12:02 39.93703 3.14106 34923 ft 381 kts 234°
2026-05-05 12:03 39.89864 3.09351 34691 ft 389 kts 216°
2026-05-05 12:03 39.87517 3.07587 34085 ft 388 kts 213°
2026-05-05 12:03 39.85169 3.05887 33426 ft 385 kts 213°
2026-05-05 12:04 39.82828 3.04206 32794 ft 384 kts 213°
2026-05-05 12:04 39.80494 3.02532 32148 ft 383 kts 213°
2026-05-05 12:04 39.78165 3.00853 31566 ft 382 kts 213°
2026-05-05 12:04 39.75852 2.99182 31037 ft 380 kts 213°
2026-05-05 12:05 39.73547 2.97511 30585 ft 379 kts 213°
2026-05-05 12:05 39.71249 2.95846 30150 ft 377 kts 213°
2026-05-05 12:05 39.68964 2.94191 29668 ft 375 kts 213°
2026-05-05 12:05 39.66689 2.92543 29168 ft 373 kts 213°
2026-05-05 12:06 39.64433 2.90909 28681 ft 370 kts 213°
2026-05-05 12:06 39.62190 2.89285 28197 ft 368 kts 213°
2026-05-05 12:06 39.59962 2.87674 27728 ft 365 kts 213°
2026-05-05 12:06 39.57750 2.86076 27253 ft 363 kts 213°
2026-05-05 12:07 39.55547 2.84488 26802 ft 361 kts 213°
2026-05-05 12:07 39.53358 2.82913 26333 ft 359 kts 213°
2026-05-05 12:07 39.51180 2.81350 25891 ft 357 kts 213°
2026-05-05 12:07 39.49013 2.79797 25449 ft 355 kts 213°
2026-05-05 12:08 39.46857 2.78251 25015 ft 353 kts 213°
2026-05-05 12:08 39.44741 2.76667 24590 ft 349 kts 218°
2026-05-05 12:08 39.42879 2.74698 24172 ft 343 kts 227°
2026-05-05 12:08 39.41337 2.72364 23766 ft 340 kts 232°
2026-05-05 12:09 39.39855 2.69985 23325 ft 339 kts 232°
2026-05-05 12:09 39.38374 2.67627 22836 ft 337 kts 232°
2026-05-05 12:09 39.36893 2.65286 22384 ft 335 kts 232°
2026-05-05 12:09 39.35419 2.62959 21910 ft 334 kts 232°
2026-05-05 12:10 39.33953 2.60642 21444 ft 332 kts 232°
2026-05-05 12:10 39.32494 2.58334 20982 ft 331 kts 232°
2026-05-05 12:10 39.31040 2.56034 20508 ft 330 kts 232°
2026-05-05 12:10 39.29591 2.53740 20064 ft 329 kts 232°
2026-05-05 12:11 39.28149 2.51455 19628 ft 328 kts 232°
2026-05-05 12:11 39.26708 2.49176 19193 ft 327 kts 232°
2026-05-05 12:11 39.25271 2.46908 18773 ft 326 kts 232°
2026-05-05 12:11 39.23834 2.44647 18353 ft 325 kts 232°
2026-05-05 12:12 39.22402 2.42389 17890 ft 325 kts 232°
2026-05-05 12:12 39.20974 2.40142 17416 ft 323 kts 232°
2026-05-05 12:12 39.19551 2.37906 16941 ft 322 kts 232°
2026-05-05 12:12 39.18136 2.35680 16477 ft 320 kts 232°
2026-05-05 12:13 39.16728 2.33463 16015 ft 319 kts 232°
2026-05-05 12:13 39.15327 2.31257 15570 ft 318 kts 232°
2026-05-05 12:13 39.13949 2.29089 15123 ft 316 kts 232°
2026-05-05 12:13 39.12556 2.26903 14703 ft 315 kts 232°
2026-05-05 12:14 39.11173 2.24739 14433 ft 308 kts 231°
2026-05-05 12:14 39.09839 2.22652 14298 ft 297 kts 231°
2026-05-05 12:14 39.08550 2.20638 14180 ft 286 kts 231°
2026-05-05 12:14 39.07304 2.18692 14010 ft 278 kts 231°
2026-05-05 12:15 39.06080 2.16779 13712 ft 276 kts 231°
2026-05-05 12:15 39.04865 2.14882 13342 ft 274 kts 231°
2026-05-05 12:15 39.03652 2.12989 12958 ft 274 kts 231°
2026-05-05 12:15 39.02444 2.11103 12583 ft 273 kts 231°
2026-05-05 12:16 39.01235 2.09222 12215 ft 272 kts 231°
2026-05-05 12:16 39.00033 2.07344 11835 ft 272 kts 231°
2026-05-05 12:16 38.98836 2.05466 11461 ft 271 kts 231°
2026-05-05 12:16 38.97640 2.03595 11093 ft 271 kts 231°
2026-05-05 12:17 38.96443 2.01734 10712 ft 270 kts 231°
2026-05-05 12:17 38.95246 1.99878 10341 ft 270 kts 231°
2026-05-05 12:17 38.94051 1.98022 9961 ft 269 kts 231°
2026-05-05 12:17 38.92859 1.96170 9559 ft 269 kts 231°
2026-05-05 12:18 38.91785 1.94224 9165 ft 267 kts 244°
2026-05-05 12:18 38.91235 1.91965 8767 ft 266 kts 262°
2026-05-05 12:18 38.91288 1.89593 8368 ft 268 kts 279°
2026-05-05 12:18 38.91689 1.87254 7955 ft 268 kts 280°
2026-05-05 12:19 38.92093 1.84927 7554 ft 266 kts 280°
2026-05-05 12:19 38.92493 1.82611 7157 ft 265 kts 279°
2026-05-05 12:19 38.92887 1.80319 6770 ft 264 kts 279°
2026-05-05 12:19 38.93281 1.78027 6394 ft 262 kts 279°
2026-05-05 12:20 38.93671 1.75749 5983 ft 261 kts 280°
2026-05-05 12:20 38.94057 1.73480 5575 ft 259 kts 280°
2026-05-05 12:20 38.94439 1.71238 5256 ft 254 kts 280°
2026-05-05 12:20 38.94811 1.69056 5031 ft 246 kts 280°
2026-05-05 12:21 38.95170 1.66960 4806 ft 232 kts 281°
2026-05-05 12:21 38.95510 1.64967 4583 ft 225 kts 281°
2026-05-05 12:21 38.95841 1.63028 4323 ft 218 kts 281°
2026-05-05 12:21 38.96163 1.61151 3949 ft 212 kts 281°
2026-05-05 12:22 38.96213 1.59311 3608 ft 203 kts 257°
2026-05-05 12:22 38.95686 1.57674 3315 ft 195 kts 243°
2026-05-05 12:22 38.95067 1.56181 3046 ft 184 kts 243°
2026-05-05 12:22 38.94484 1.54768 2780 ft 174 kts 244°
2026-05-05 12:23 38.93933 1.53428 2544 ft 165 kts 243°
2026-05-05 12:23 38.93403 1.52140 2330 ft 161 kts 245°
2026-05-05 12:23 38.92886 1.50885 2119 ft 157 kts 246°
2026-05-05 12:23 38.92381 1.49660 1897 ft 153 kts 244°
2026-05-05 12:24 38.91891 1.48472 1714 ft 147 kts 245°
2026-05-05 12:24 38.91423 1.47337 1542 ft 143 kts 244°
2026-05-05 12:24 38.90967 1.46230 1338 ft 138 kts 245°
2026-05-05 12:24 38.90519 1.45143 1160 ft 138 kts 244°
2026-05-05 12:25 38.90072 1.44060 976 ft 136 kts 245°
2026-05-05 12:25 38.89634 1.43001 799 ft 134 kts 244°
2026-05-05 12:25 38.89202 1.41954 630 ft 132 kts 242°
2026-05-05 12:25 38.88774 1.40919 436 ft 133 kts 242°
2026-05-05 12:26 38.88341 1.39868 276 ft 133 kts 242°
2026-05-05 12:26 38.87907 1.38815 72 ft 131 kts 242°
2026-05-05 12:26 38.87511 1.37857 11 ft 102 kts 242°
2026-05-05 12:26 38.87257 1.37248 11 ft 53 kts 242°
2026-05-05 12:27 38.87124 1.36914 10 ft 33 kts 244°
2026-05-05 12:27 38.87102 1.36680 8 ft 23 kts 272°
2026-05-05 12:27 38.87153 1.36573 8 ft 13 kts 17°
2026-05-05 12:27 38.87202 1.36658 9 ft 11 kts 64°
2026-05-05 12:28 38.87236 1.36743 9 ft 10 kts 62°
2026-05-05 12:28 38.87267 1.36819 9 ft 9 kts 62°
2026-05-05 12:28 38.87296 1.36889 9 ft 9 kts 62°
2026-05-05 12:28 38.87338 1.36992 9 ft 16 kts 62°
2026-05-05 12:29 38.87387 1.37112 9 ft 15 kts 62°
2026-05-05 12:29 38.87432 1.37222 10 ft 13 kts 62°
2026-05-05 12:29 38.87484 1.37254 9 ft 8 kts 341°
2026-05-05 12:29 38.87531 1.37221 8 ft 7 kts 332°
2026-05-05 12:30 38.87548 1.37210 10 ft 0 kts 332°